Regional Weather Roundup
Issued by NWS

Home | Current Version | Previous Version | Graphics & Text | Print | Product List | Glossary On
Versions: 1 2 3 4 5 6 7 8 9 10 11 12 13 14 15 16 17 18 19 20 21 22 23 24 25 26 27 28 29 30 31 32 33 34 35 36 37 38 39 40 41 42 43 44 45 46 47 48 49 50
000
ASUS43 KLOT 231506
RWRIL

ILLINOIS REGIONAL WEATHER ROUNDUP
NATIONAL WEATHER SERVICE CHICAGO/ROMEOVILLE IL
1000 AM CDT TUE SEP 23 2014

NOTE: "FAIR" INDICATES FEW OR NO CLOUDS BELOW 12,000 FEET WITH NO
SIGNIFICANT WEATHER AND/OR OBSTRUCTIONS TO VISIBILITY.

* THESE STATIONS ARE NOT UNDER NWS QUALITY CONTROL. THEY ALSO MAY NOT
  REPORT WEATHER SUCH AS PRECIPITATION OR FOG.

ILZ001-002-007-009-015-016-024-231600-
NORTHWEST ILLINOIS

CITY           SKY/WX    TMP DP  RH WIND       PRES   REMARKS
MOLINE         SUNNY     63  48  58 CALM      30.33R
STERLING*      SUNNY     64  48  55 S3        30.35R
SAVANNA*       SUNNY     61  48  62 S3        30.34S
$$

ILZ003-004-008-010-011-017-018-231600-
NORTH CENTRAL ILLINOIS

CITY           SKY/WX    TMP DP  RH WIND       PRES   REMARKS
ROCKFORD       MOSUNNY   61  49  64 SW5       30.36S
ROCHELLE*        N/A     61  49  63 SW3       30.35S
DE KALB*       SUNNY     61  49  64 SW7       30.36R
PERU*          SUNNY     62  49  62 S6        30.36R
$$

ILZ005-006-012>014-019>023-231600-
NORTHEAST ILLINOIS

CITY           SKY/WX    TMP DP  RH WIND       PRES   REMARKS
CHICAGO-OHARE  SUNNY     60  45  57 W9        30.34S
CHICAGO-MIDWAY MOSUNNY   64  48  56 W7        30.35R
AURORA         SUNNY     61  49  64 CALM      30.36R
LANSING*       SUNNY     62  48  59 SW7       30.36S
JOLIET*        SUNNY     61  47  60 SW5       30.36S
WAUKEGAN       SUNNY     63  49  60 SW7       30.33R
DUPAGE AIRPORT SUNNY     62  47  57 SW7       30.35R
KANKAKEE*      SUNNY     63  51  64 SW5       30.37R
WHEELING       SUNNY     64  46  52 S6        30.35S
MORRIS*        SUNNY     62  50  64 SW3       30.35S
ROMEOVILLE*    SUNNY     62  46  57 SW6       30.35F
NORTHERLY ISL    N/A     63  44  50 W9          N/A
$$

LMZ740>746-231600-
SOUTHERN LAKE MICHIGAN

STATION/POSITION SKY/WX   TEMP    WIND        PRES    VSBY  WAVE
                          AIR SEA DIR/SP/G                  HT/PER
                          (F)     (DEG/KT/KT) (MB)    (MI)  (FT/S)
SOUTHERN BUOY              61 61  230/ 10/ 12 1027.2R         2/ 3
WAUKEGAN HARBOR            61     260/  8/ 12   N/A
BURNHAM HARBOR             63     240/  7/ 13   N/A
CALUMET HARBOR             60     210/  7/  9 1026.2R
MICHIGAN CITY 6N           60 63  220/  6/  8   N/A           1/ 3
ST. JOSEPH                 60 64  210/  8/ 10   N/A           1/ 3
$$

ILZ025>027-034>036-040-047-049-050-058-095>099-231600-
WEST-CENTRAL ILLINOIS

CITY           SKY/WX    TMP DP  RH WIND       PRES   REMARKS
QUINCY         MOSUNNY   65  48  54 S8        30.32R
GALESBURG*     SUNNY    N/A N/A N/A S3        30.34S
MACOMB*        SUNNY     61  48  62 S5        30.35S
JACKSONVILLE*  SUNNY     66  51  57 SE6       30.35R
PITTSFIELD*    MOSUNNY   65  49  55 S6        30.34S HAZE
$$

ILZ028>032-037-038-041>044-048-051>054-059>061-231600-
CENTRAL ILLINOIS

CITY           SKY/WX    TMP DP  RH WIND       PRES   REMARKS
PONTIAC        SUNNY     64  48  55 SW3       30.35S
BLOOMINGTON    SUNNY     64  49  58 S8        30.37R
DECATUR        SUNNY     63  49  60 S5        30.36R
PEORIA         SUNNY     62  49  62 S6        30.35R
LACON*         SUNNY     61  50  68 CALM      30.35R
LINCOLN*       SUNNY     64  50  60 S3        30.34S
SPRINGFIELD    SUNNY     65  48  54 S7        30.35R
TAYLORVILLE    SUNNY     63  50  63 S6        30.35S
$$

ILZ033-039-045-046-055>057-062-063-231600-
EAST-CENTRAL ILLINOIS

CITY           SKY/WX    TMP DP  RH WIND       PRES   REMARKS
CHAMPAIGN      SUNNY     63  46  54 S6        30.36R
DANVILLE*      SUNNY     62  48  60 CALM      30.34R
RANTOUL*       SUNNY     64  47  55 SE3       30.36S
MATTOON        SUNNY     61  49  64 SE3       30.35R
PARIS*         SUNNY     64  50  60 SE3       30.37R
$$

ILZ079-100>102-231600-
SOUTHWEST ILLINOIS

CITY           SKY/WX    TMP DP  RH WIND       PRES   REMARKS
BELLEVILLE     SUNNY     63  52  68 E3        30.34R
CAHOKIA*       SUNNY     65  51  60 SE7       30.34R
SPARTA*        SUNNY     63  49  60 SE5       30.34R
$$

ILZ064>066-069>071-074>076-080>082-084>086-088>090-092>094-231600-
SOUTH-CENTRAL ILLINOIS

CITY           SKY/WX    TMP DP  RH WIND       PRES   REMARKS
CARBONDALE     SUNNY     58  51  78 E5        30.33R
CAIRO*         SUNNY     64  53  66 E6        30.31R
EFFINGHAM*     SUNNY     63  46  52 SE3       30.35S
MARION         MOSUNNY   64  48  55 SE6       30.34R
MT. VERNON     SUNNY     63  50  63 E5        30.35R
CENTRALIA*     SUNNY     64  47  54 SE5       30.34R
SALEM*         SUNNY     64  51  64 E3        30.35R
METROPOLIS*    SUNNY     64  50  60 E3        30.31R
$$

ILZ067-068-072-073-078-083-087-091-231600-
SOUTHEAST ILLINOIS

CITY           SKY/WX    TMP DP  RH WIND       PRES   REMARKS
LAWRENCEVILLE  SUNNY     63  50  62 VRB6      30.35S
FLORA*         SUNNY     62  49  63 SE6       30.35R HAZE
FAIRFIELD*     SUNNY    N/A N/A N/A SE3       30.34R
HARRISBURG*    SUNNY     62  50  64 E6        30.34R
ROBINSON*      SUNNY     64  53  67 CALM      30.36S
CARMI*         SUNNY     66  51  58 E6        30.33S
$$

ABBREVIATIONS USED IN REMARKS
   TC - TEMPERATURE IN CELSIUS
  WCI - WIND CHILL INDEX
   HX - HEAT INDEX
  VSB - VISIBILITY
$$



USA.gov is the U.S. government's official web portal to all federal, state and local government web resources and services.